DW3589 Weather Reports


time (UTC)temp
F
wind
direction
speed
knots
gust
knots
rain 1hr
in
rain 24hr
in
rain mn
in
humidity
%
barometer
mb
20260508084019 65 0.0 0.0 0.00 0.00 0.00 69 1014.2
20260508083019 64 0.0 0.0 0.00 0.00 0.00 72 1014.3
20260508082020 64 0.0 0.0 0.00 0.00 0.00 72 1014.2
20260508081020 63 0.0 0.0 0.00 0.00 0.00 73 1014.3
20260508080019 63 0.0 0.0 0.00 0.00 0.00 75 1014.3
20260508075020 62 0.0 0.0 0.00 0.00 0.00 76 1014.2
20260508074020 62 0.0 0.0 0.00 0.00 0.00 78 1014.1
20260508073020 61 0.0 0.0 0.00 0.00 0.00 80 1014.1
20260508072020 61 0.0 0.0 0.00 0.00 0.00 80 1014.0
20260508071019 60 0.0 0.0 0.00 0.00 0.00 82 1014.0
20260508070019 59 0.0 0.0 0.00 0.00 0.00 84 1013.9
20260508065018 58 0.0 0.0 0.00 0.00 0.00 86 1013.8
20260508064019 57 0.0 0.0 0.00 0.00 0.00 86 1013.9
20260508063019 57 0.0 0.0 0.00 0.00 0.00 86 1013.9
20260508062020 56 0.0 0.0 0.00 0.00 0.00 86 1013.9
20260508061040 0 0.0 0.0 0.00 0.00 0.00
20260508060040 0 0.0 0.0 0.00 0.00 0.00
20260508055535 0 0.0 0.0 0.00 0.00 0.00
20260508055109 0 0.0 0.0 0.00 0.00 0.00
20260508054517 0 0.0 0.0 0.00 0.00 0.00
20260508053558 0 0.0 0.0 0.00 0.00 0.00
20260508053013 0 0.0 0.0 0.00 0.00 0.00
20260508052609 0 0.0 0.0 0.00 0.00 0.00
20260508052017 0 0.0 0.0 0.00 0.00 0.00
20260508051038 0 0.0 0.0 0.00 0.00 0.00
20260508050526 56 0.0 0.0 0.00 0.00 0.00 84 1013.0
20260508050113 56 0.0 0.0 0.00 0.00 0.00 84 1012.9
20260508045518 56 0.0 0.0 0.00 0.00 0.00 84 1012.8
20260508044518 57 0.0 0.0 0.00 0.00 0.00 84 1012.7
20260508043518 57 0.0 0.0 0.00 0.00 0.00 84 1012.5
20260508042518 57 0.0 0.0 0.00 0.00 0.00 83 1012.5
20260508041518 58 0.0 0.0 0.00 0.00 0.00 83 1012.7
20260508040517 58 0.0 0.0 0.00 0.00 0.00 83 1012.3
20260508035518 58 0.0 0.0 0.00 0.00 0.00 84 1012.6
20260508034517 58 0.0 0.0 0.00 0.00 0.00 83 1012.6
20260508033518 58 0.0 0.0 0.00 0.00 0.00 83 1012.8
20260508032518 58 0.0 0.0 0.00 0.00 0.00 82 1012.8
20260508031518 58 0.0 0.0 0.00 0.00 0.00 82 1012.9
20260508030518 58 0.0 0.0 0.00 0.00 0.00 83 1013.0
20260508025518 58 0.0 0.0 0.00 0.00 0.00 83 1013.1
20260508024518 58 0.0 0.0 0.00 0.00 0.00 83 1013.1
20260508023518 58 0.0 0.0 0.00 0.00 0.00 84 1013.1
20260508022518 58 0.0 0.0 0.00 0.00 0.00 84 1013.1
20260508021518 57 0.0 0.0 0.00 0.00 0.00 84 1013.4
20260508020518 57 0.0 0.0 0.00 0.00 0.00 84 1013.2
20260508015539 57 0.0 0.0 0.00 0.00 0.00 84 1013.2
20260508014518 57 0.0 0.0 0.00 0.00 0.00 84 1013.2
20260508013518 57 0.0 0.0 0.00 0.00 0.00 85 1013.2
20260508012518 57 0.0 0.0 0.00 0.00 0.00 85 1013.5
20260508011518 58 0.0 0.0 0.00 0.00 0.00 85 1013.4
20260508010538 58 0.0 0.0 0.00 0.00 0.00 85 1013.6
20260508005518 58 0.0 0.0 0.00 0.00 0.00 85 1013.6
20260508004518 58 0.0 0.0 0.00 0.00 0.00 85 1013.5
20260508003518 58 0.0 0.0 0.00 0.00 0.00 84 1013.7
20260508002518 58 0.0 0.0 0.00 0.00 0.00 84 1013.5
20260508001518 58 0.0 0.0 0.00 0.00 0.00 83 1013.7
20260508000518 59 0.0 0.0 0.00 0.00 0.00 83 1013.6
20260507235518 59 0.0 0.0 0.00 0.00 0.00 82 1013.5
20260507234518 59 0.0 0.0 0.00 0.00 0.00 82 1013.6
20260507233519 59 0.0 0.0 0.00 0.00 0.00 82 1013.7
20260507232518 59 0.0 0.0 0.00 0.00 0.00 81 1013.8
20260507231518 59 0.0 0.0 0.00 0.00 0.00 81 1013.8
20260507230538 59 0.0 0.0 0.00 0.00 0.00 82 1013.8
20260507225519 59 0.0 0.0 0.00 0.00 0.00 81 1014.1
20260507224518 59 0.0 0.0 0.00 0.00 0.00 81 1014.3
20260507223518 59 0.0 0.0 0.00 0.00 0.00 80 1014.4
20260507222518 59 0.0 0.0 0.00 0.00 0.00 79 1014.4
20260507221518 59 0.0 0.0 0.00 0.00 0.00 79 1014.4
20260507220518 60 0.0 0.0 0.00 0.00 0.00 79 1014.3
20260507215519 60 0.0 0.0 0.00 0.00 0.00 79 1014.3
20260507214519 60 0.0 0.0 0.00 0.00 0.00 79 1014.3
20260507213519 60 0.0 0.0 0.00 0.00 0.00 78 1014.5
20260507212519 60 0.0 0.0 0.00 0.00 0.00 78 1014.5
20260507211519 60 0.0 0.0 0.00 0.00 0.00 77 1014.5
20260507210519 60 0.0 0.0 0.00 0.00 0.00 76 1014.4
20260507205519 61 0.0 0.0 0.00 0.00 0.00 76 1014.2
20260507204519 61 0.0 0.0 0.00 0.00 0.00 75 1014.1
20260507203519 61 0.0 0.0 0.00 0.00 0.00 74 1014.0
20260507202519 61 0.0 0.0 0.00 0.00 0.00 74 1013.8
20260507201539 62 0.0 0.0 0.00 0.00 0.00 73 1013.7
20260507200519 62 0.0 0.0 0.00 0.00 0.00 72 1013.5
20260507195519 62 0.0 0.0 0.00 0.00 0.00 72 1013.5
20260507194600 62 0.0 0.0 0.00 0.00 0.00 71 1013.4
20260507193540 63 0.0 0.0 0.00 0.00 0.00 70 1013.4
20260507192519 63 0.0 0.0 0.00 0.00 0.00 69 1013.3
20260507191519 63 0.0 0.0 0.00 0.00 0.00 68 1013.1
20260507190519 64 0.0 0.0 0.00 0.00 0.00 67 1013.1
20260507185519 64 0.0 0.0 0.00 0.00 0.00 66 1012.9
20260507184519 65 0.0 0.0 0.00 0.00 0.00 64 1012.7
20260507183520 66 0.0 0.0 0.00 0.00 0.00 61 1012.5
20260507182519 66 0.0 0.0 0.00 0.00 0.00 58 1012.5
20260507181519 67 0.0 0.0 0.00 0.00 0.00 56 1012.4
20260507180519 68 0.0 0.0 0.00 0.00 0.00 55 1012.4
20260507175539 68 0.0 0.0 0.00 0.00 0.00 54
20260507174540 68 0.0 0.0 0.00 0.00 0.00 56
20260507173519 68 0.0 0.0 0.00 0.00 0.00 56
20260507172519 68 0.0 0.0 0.00 0.00 0.00 56 1012.1
20260507171600 69 0.0 0.0 0.00 0.00 0.00 56 1012.0
20260507170519 69 0.0 0.0 0.00 0.00 0.00 56 1011.9
20260507165519 69 0.0 0.0 0.00 0.00 0.00 57 1012.0
20260507164519 69 0.0 0.0 0.00 0.00 0.00 56 1012.0
20260507163519 70 0.0 0.0 0.00 0.00 0.00 57 1011.9
20260507162519 70 0.0 0.0 0.00 0.00 0.00 57 1011.8
20260507161519 70 0.0 0.0 0.00 0.00 0.00 56 1011.8
20260507160519 70 0.0 0.0 0.00 0.00 0.00 56 1011.8
20260507155519 70 0.0 0.0 0.00 0.00 0.00 57 1011.7
20260507154519 70 0.0 0.0 0.00 0.00 0.00 57 1011.8
20260507153519 70 0.0 0.0 0.00 0.00 0.00 57 1011.8
20260507152519 70 0.0 0.0 0.00 0.00 0.00 56 1011.8
20260507151520 69 0.0 0.0 0.00 0.00 0.00 59 1011.8
20260507150520 70 0.0 0.0 0.00 0.00 0.00 57 1011.9
20260507145520 70 0.0 0.0 0.00 0.00 0.00 58 1011.9
20260507144520 70 0.0 0.0 0.00 0.00 0.00 58 1012.0
20260507143520 70 0.0 0.0 0.00 0.00 0.00 57 1012.0
20260507142519 69 0.0 0.0 0.00 0.00 0.00 58 1012.1
20260507141519 69 0.0 0.0 0.00 0.00 0.00 58 1012.3
20260507140600 70 0.0 0.0 0.00 0.00 0.00 56 1012.3
20260507135520 69 0.0 0.0 0.00 0.00 0.00 58 1012.3
20260507134539 70 0.0 0.0 0.00 0.00 0.00 57 1012.3
20260507133520 70 0.0 0.0 0.00 0.00 0.00 58 1012.6
20260507132520 68 0.0 0.0 0.00 0.00 0.00 61 1012.6
20260507131519 69 0.0 0.0 0.00 0.00 0.00 60 1012.6
20260507130540 69 0.0 0.0 0.00 0.00 0.00 60 1012.6
20260507125519 68 0.0 0.0 0.00 0.00 0.00 61 1012.7
20260507124519 68 0.0 0.0 0.00 0.00 0.00 60 1012.8
20260507123520 69 0.0 0.0 0.00 0.00 0.00 60 1013.0
20260507122520 69 0.0 0.0 0.00 0.00 0.00 62 1013.0
20260507121538 68 0.0 0.0 0.00 0.00 0.00 61 1013.1
20260507120520 68 0.0 0.0 0.00 0.00 0.00 61 1013.2
20260507115520 68 0.0 0.0 0.00 0.00 0.00 61 1013.3
20260507114519 67 0.0 0.0 0.00 0.00 0.00 64 1013.3
20260507113517 68 0.0 0.0 0.00 0.00 0.00 64 1013.4
20260507112541 68 0.0 0.0 0.00 0.00 0.00 65 1013.3
20260507111518 69 0.0 0.0 0.00 0.00 0.00 65 1013.3
20260507110520 69 0.0 0.0 0.00 0.00 0.00 63 1013.3
20260507105558 68 0.0 0.0 0.00 0.00 0.00 63 1013.3
20260507104518 68 0.0 0.0 0.00 0.00 0.00 66 1013.4
20260507103518 67 0.0 0.0 0.00 0.00 0.00 71 1013.5
20260507102538 66 0.0 0.0 0.00 0.00 0.00 72 1013.6
20260507101518 65 0.0 0.0 0.00 0.00 0.00 76 1013.5
20260507100518 64 0.0 0.0 0.00 0.00 0.00 74 1013.5
20260507095518 66 0.0 0.0 0.00 0.00 0.00 69 1013.5
20260507094538 66 0.0 0.0 0.00 0.00 0.00 66 1013.4
20260507093518 66 0.0 0.0 0.00 0.00 0.00 66 1013.4
20260507092538 66 0.0 0.0 0.00 0.00 0.00 67 1013.4
20260507091518 66 0.0 0.0 0.00 0.00 0.00 67 1013.3
20260507090518 66 0.0 0.0 0.00 0.00 0.00 67 1013.3
20260507085518 66 0.0 0.0 0.00 0.00 0.00 68 1013.3